When you browse on this site, cookies collect data to enhance your experience and personalize the content and advertising you see.
Visit our Privacy Policy to learn more. By continuing to use the site, you agree to this use of cookies and data.
  • Em Portugal
  • Lista de países
  • Para 7 dias
  • Temperatura da água
  • Mapa do tempo
  • Widgets de tempo
  • user-avatar
    Iniciar Sessão

    Previsão horária em Dhaka

    Hoje, 1 Junho, Segunda-feira

    Tempo Temperatura Precipitação Vento Pressão Humidade
    00:00 +30°C° 0 mm 2 m/s 754 mmHg 75%
    01:00 +30°C° 0.3 mm 2 m/s 754 mmHg 77%
    02:00 +30°C° 0.3 mm 2 m/s 754 mmHg 79%
    03:00 +29°C° 0.3 mm 2 m/s 754 mmHg 80%
    04:00 +29°C° 0.4 mm 2 m/s 754 mmHg 81%
    05:00 +29°C° 0.4 mm 2 m/s 754 mmHg 82%
    06:00 +30°C° 0 mm 3 m/s 755 mmHg 85%
    07:00 +32°C° 0 mm 4 m/s 755 mmHg 77%
    08:00 +34°C° 0 mm 4 m/s 755 mmHg 68%
    09:00 +35°C° 0 mm 4 m/s 755 mmHg 60%
    10:00 +37°C° 0 mm 4 m/s 755 mmHg 54%
    11:00 +38°C° 0 mm 4 m/s 755 mmHg 47%
    12:00 +40°C° 0 mm 4 m/s 754 mmHg 41%
    13:00 +41°C° 0 mm 4 m/s 753 mmHg 38%
    14:00 +42°C° 0 mm 4 m/s 753 mmHg 36%
    15:00 +42°C° 0 mm 3 m/s 752 mmHg 34%
    16:00 +41°C° 0 mm 4 m/s 751 mmHg 40%
    17:00 +39°C° 0 mm 5 m/s 751 mmHg 47%
    18:00 +38°C° 0 mm 6 m/s 751 mmHg 54%
    19:00 +36°C° 0.5 mm 6 m/s 751 mmHg 59%
    20:00 +35°C° 0.5 mm 6 m/s 752 mmHg 64%
    21:00 +34°C° 0.5 mm 6 m/s 752 mmHg 70%
    22:00 +33°C° 0.3 mm 6 m/s 752 mmHg 72%
    23:00 +32°C° 0.3 mm 5 m/s 752 mmHg 74%

    Amanhã, 2 Junho, Terça-feira

    Tempo Temperatura Precipitação Vento Pressão Humidade
    00:00 +32°C° 0.3 mm 4 m/s 752 mmHg 76%
    01:00 +30°C° 0.5 mm 4 m/s 752 mmHg 79%
    02:00 +30°C° 0.5 mm 4 m/s 752 mmHg 82%
    03:00 +29°C° 0.5 mm 4 m/s 752 mmHg 85%
    04:00 +30°C° 0.4 mm 5 m/s 752 mmHg 84%
    05:00 +30°C° 0.4 mm 5 m/s 752 mmHg 84%
    06:00 +30°C° 0.4 mm 5 m/s 753 mmHg 83%
    07:00 +33°C° 0 mm 5 m/s 753 mmHg 77%
    08:00 +34°C° 0 mm 6 m/s 753 mmHg 72%
    09:00 +35°C° 0 mm 6 m/s 753 mmHg 66%
    10:00 +36°C° 0 mm 6 m/s 753 mmHg 63%
    11:00 +38°C° 0 mm 6 m/s 753 mmHg 59%
    12:00 +38°C° 0 mm 6 m/s 753 mmHg 56%
    13:00 +40°C° 0 mm 6 m/s 752 mmHg 50%
    14:00 +41°C° 0 mm 6 m/s 751 mmHg 45%
    15:00 +42°C° 0 mm 6 m/s 750 mmHg 39%
    16:00 +41°C° 0.2 mm 6 m/s 750 mmHg 45%
    17:00 +39°C° 0.2 mm 6 m/s 749 mmHg 50%
    18:00 +38°C° 0.2 mm 6 m/s 749 mmHg 55%
    19:00 +34°C° 13.7 mm 6 m/s 750 mmHg 67%
    20:00 +30°C° 13.7 mm 6 m/s 751 mmHg 79%
    21:00 +27°C° 13.7 mm 6 m/s 752 mmHg 90%
    22:00 +27°C° 1.1 mm 5 m/s 752 mmHg 88%
    23:00 +27°C° 1.1 mm 5 m/s 752 mmHg 86%

    Depois de amanhã, 3 Junho, Quarta-feira

    Tempo Temperatura Precipitação Vento Pressão Humidade
    00:00 +27°C° 1.1 mm 5 m/s 752 mmHg 84%
    01:00 +27°C° 0.5 mm 5 m/s 752 mmHg 84%
    02:00 +28°C° 0.5 mm 5 m/s 752 mmHg 84%
    03:00 +28°C° 0.5 mm 4 m/s 751 mmHg 84%
    04:00 +28°C° 0.9 mm 4 m/s 752 mmHg 86%
    05:00 +28°C° 0.9 mm 4 m/s 752 mmHg 88%
    06:00 +29°C° 0.9 mm 3 m/s 752 mmHg 90%
    07:00 +30°C° 1 mm 4 m/s 752 mmHg 85%
    08:00 +33°C° 1 mm 4 m/s 753 mmHg 80%
    09:00 +34°C° 1 mm 5 m/s 753 mmHg 74%
    10:00 +36°C° 0.7 mm 4 m/s 753 mmHg 66%
    11:00 +37°C° 0.7 mm 4 m/s 753 mmHg 57%
    12:00 +40°C° 0.7 mm 4 m/s 752 mmHg 48%
    13:00 +40°C° 0.1 mm 4 m/s 751 mmHg 45%
    14:00 +40°C° 0.1 mm 4 m/s 751 mmHg 42%
    15:00 +40°C° 0.1 mm 4 m/s 750 mmHg 40%
    16:00 +37°C° 0.3 mm 4 m/s 750 mmHg 49%
    17:00 +35°C° 0.3 mm 5 m/s 750 mmHg 59%
    18:00 +33°C° 0.3 mm 5 m/s 750 mmHg 69%
    19:00 +32°C° 0 mm 4 m/s 751 mmHg 72%
    20:00 +30°C° 0 mm 4 m/s 752 mmHg 76%
    21:00 +29°C° 0 mm 4 m/s 753 mmHg 80%
    22:00 +29°C° 0 mm 4 m/s 753 mmHg 80%
    23:00 +29°C° 0 mm 3 m/s 753 mmHg 80%

    4 Junho, Quinta-feira

    Tempo Temperatura Precipitação Vento Pressão Humidade
    00:00 +29°C° 0 mm 3 m/s 752 mmHg 80%
    01:00 +29°C° 0 mm 3 m/s 752 mmHg 82%
    02:00 +28°C° 0 mm 3 m/s 752 mmHg 83%
    03:00 +28°C° 0 mm 3 m/s 752 mmHg 85%
    04:00 +28°C° 0.5 mm 2 m/s 752 mmHg 86%
    05:00 +28°C° 0.5 mm 2 m/s 752 mmHg 87%
    06:00 +28°C° 0.5 mm 2 m/s 752 mmHg 88%
    07:00 +30°C° 0.4 mm 2 m/s 753 mmHg 78%
    08:00 +32°C° 0.4 mm 2 m/s 753 mmHg 68%
    09:00 +35°C° 0.4 mm 2 m/s 753 mmHg 58%
    10:00 +37°C° 0.1 mm 3 m/s 753 mmHg 54%
    11:00 +38°C° 0.1 mm 3 m/s 753 mmHg 49%
    12:00 +39°C° 0.1 mm 3 m/s 752 mmHg 44%
    13:00 +39°C° 0 mm 3 m/s 752 mmHg 46%
    14:00 +39°C° 0 mm 3 m/s 751 mmHg 47%
    15:00 +38°C° 0 mm 3 m/s 750 mmHg 48%
    16:00 +36°C° 1.6 mm 4 m/s 750 mmHg 57%
    17:00 +34°C° 1.6 mm 5 m/s 750 mmHg 65%
    18:00 +33°C° 1.6 mm 6 m/s 750 mmHg 74%
    19:00 +32°C° 2.2 mm 5 m/s 750 mmHg 76%
    20:00 +32°C° 2.2 mm 5 m/s 751 mmHg 78%
    21:00 +30°C° 2.2 mm 4 m/s 752 mmHg 80%
    22:00 +30°C° 0 mm 4 m/s 752 mmHg 81%
    23:00 +30°C° 0 mm 4 m/s 752 mmHg 82%

    5 Junho, Sexta-feira

    Tempo Temperatura Precipitação Vento Pressão Humidade
    00:00 +30°C° 0 mm 4 m/s 752 mmHg 83%
    01:00 +30°C° 0.1 mm 4 m/s 751 mmHg 85%
    02:00 +29°C° 0.1 mm 4 m/s 751 mmHg 87%
    03:00 +29°C° 0.1 mm 4 m/s 751 mmHg 89%
    04:00 +29°C° 0.8 mm 4 m/s 751 mmHg 89%
    05:00 +29°C° 0.8 mm 4 m/s 751 mmHg 89%
    06:00 +30°C° 0.8 mm 4 m/s 751 mmHg 89%
    07:00 +32°C° 0.5 mm 5 m/s 752 mmHg 82%
    08:00 +33°C° 0.5 mm 5 m/s 752 mmHg 76%
    09:00 +35°C° 0.5 mm 5 m/s 753 mmHg 70%
    10:00 +35°C° 2.4 mm 5 m/s 752 mmHg 66%
    11:00 +36°C° 2.4 mm 5 m/s 752 mmHg 62%
    12:00 +37°C° 2.4 mm 4 m/s 752 mmHg 58%
    13:00 +37°C° 1.8 mm 4 m/s 751 mmHg 57%
    14:00 +38°C° 1.8 mm 4 m/s 750 mmHg 55%
    15:00 +38°C° 1.8 mm 4 m/s 750 mmHg 54%
    16:00 +37°C° 0.5 mm 4 m/s 749 mmHg 59%
    17:00 +36°C° 0.5 mm 5 m/s 749 mmHg 64%
    18:00 +35°C° 0.5 mm 5 m/s 749 mmHg 69%
    19:00 +34°C° 0.2 mm 5 m/s 749 mmHg 72%
    20:00 +33°C° 0.2 mm 5 m/s 750 mmHg 74%
    21:00 +32°C° 0.2 mm 5 m/s 750 mmHg 77%
    22:00 +32°C° 0.1 mm 5 m/s 750 mmHg 78%
    23:00 +32°C° 0.1 mm 5 m/s 750 mmHg 79%

    6 Junho, Sábado

    Tempo Temperatura Precipitação Vento Pressão Humidade
    00:00 +30°C° 0.1 mm 5 m/s 750 mmHg 80%
    01:00 +30°C° 0.1 mm 5 m/s 750 mmHg 81%
    02:00 +30°C° 0.1 mm 5 m/s 750 mmHg 82%
    03:00 +30°C° 0.1 mm 5 m/s 750 mmHg 82%
    04:00 +30°C° 0 mm 4 m/s 750 mmHg 82%
    05:00 +30°C° 0 mm 4 m/s 750 mmHg 81%
    06:00 +30°C° 0 mm 4 m/s 750 mmHg 81%
    07:00 +32°C° 0 mm 4 m/s 751 mmHg 75%
    08:00 +34°C° 0 mm 4 m/s 751 mmHg 70%
    09:00 +35°C° 0 mm 5 m/s 751 mmHg 64%
    10:00 +37°C° 0 mm 4 m/s 751 mmHg 58%
    11:00 +38°C° 0 mm 4 m/s 751 mmHg 52%
    12:00 +41°C° 0 mm 4 m/s 750 mmHg 46%
    13:00 +40°C° 0.1 mm 5 m/s 750 mmHg 49%
    14:00 +39°C° 0.1 mm 5 m/s 749 mmHg 52%
    15:00 +38°C° 0.1 mm 6 m/s 748 mmHg 55%
    16:00 +38°C° 0.1 mm 6 m/s 748 mmHg 58%
    17:00 +36°C° 0.1 mm 6 m/s 748 mmHg 61%
    18:00 +36°C° 0.1 mm 6 m/s 748 mmHg 64%
    19:00 +35°C° 0.2 mm 6 m/s 748 mmHg 69%
    20:00 +34°C° 0.2 mm 6 m/s 749 mmHg 73%
    21:00 +33°C° 0.2 mm 6 m/s 749 mmHg 77%
    22:00 +33°C° 0.4 mm 6 m/s 749 mmHg 79%
    23:00 +32°C° 0.4 mm 6 m/s 749 mmHg 80%
    Mostrar mais